Trieste, Italy

1:47 AM CET on December 05, 2016 (GMT +0100)
Trieste

Weather History for LIVT - October, 2012

Change the Weather History Date:

Friday, October 26, 2012

  Actual Average Record
Temperature  
Mean Temperature 62 °F -  
Max Temperature 66 °F 61 °F 72 °F (2016)
Min Temperature 58 °F 53 °F 39 °F (2003)
Degree Days  
Heating Degree Days 3    
Growing Degree Days 12 (Base 50)    
Moisture  
Dew Point 57 °F    
Average Humidity 82    
Maximum Humidity 88    
Minimum Humidity 68    
Precipitation  
Precipitation 0.71 in - - ()
Sea Level Pressure  
Sea Level Pressure 29.74 in    
Wind  
Wind Speed 3 mph ()    
Max Wind Speed 8 mph    
Max Gust Speed 20 mph    
Visibility 4.6 miles    
Events Rain    
Averages and records for this station are not official NWS values.
T = Trace of Precipitation, MM = Missing Value Source: Averaged Metar Reports

Daily Weather History Graph

Daily Weather History Graph

Search for Another Location

Airport or City:

Trip Planner

Search our weather history database for the weather conditions in past years. The results will help you decide how hot, cold, wet, or windy it might be!

Date:

Astronomy

Oct. 26, 2012 Rise Set
Actual Time 7:36 AM CEST 6:00 PM CEST
Civil Twilight 7:06 AM CEST 6:30 PM CEST
Nautical Twilight 6:31 AM CEST 7:05 PM CEST
Astronomical Twilight 5:56 AM CEST 7:40 PM CEST
Moon 4:14 PM CEST (10/26) 4:07 AM CEST (10/26)
Length of Visible Light 11h 24m
Length of Day
10h 23m
Waxing Gibbous, 89% of the Moon is Illuminated
Oct 26
Waxing Gibbous
Oct 29
Full
Nov 7
Last Quarter
Nov 13
New
Nov 20
First Quarter

Hourly Weather History & Observations

Time (CEST) Temp. Dew Point Humidity Pressure Visibility Wind Dir Wind Speed Gust Speed Precip Events Conditions
12:55 AM 59.0 °F 53.6 °F 82% 29.89 in - East 5.8 mph - N/A   Clear
1:55 AM 59.0 °F 53.6 °F 82% 29.89 in - East 6.9 mph - N/A   Clear
2:00 AM 60 °F 53 °F 72% 29.90 in 12 mi East 6.9 mph - -   Partly Cloudy
2:55 AM 59.0 °F 51.8 °F 77% 29.89 in - East 4.6 mph - N/A   Clear
3:55 AM 60.8 °F 50.0 °F 68% 29.86 in - East 4.6 mph - N/A   Clear
5:55 AM 60.8 °F 53.6 °F 77% 29.86 in - East 2.3 mph - N/A   Clear
6:55 AM 60.8 °F 53.6 °F 77% 29.83 in - ENE 2.3 mph - N/A   Clear
7:55 AM 60.8 °F 55.4 °F 82% 29.83 in 6.2 mi Calm Calm - N/A   Scattered Clouds
8:00 AM 61 °F 55 °F 75% 29.83 in 6 mi Calm Calm - -   Overcast
8:55 AM 60.8 °F 55.4 °F 82% 29.83 in 6.2 mi Calm Calm - N/A   Scattered Clouds
9:55 AM 62.6 °F 57.2 °F 82% 29.83 in 6.2 mi Calm Calm - N/A   Scattered Clouds
10:55 AM 62.6 °F 57.2 °F 82% 29.83 in 6.2 mi Calm Calm - N/A   Scattered Clouds
11:55 AM 66.2 °F 57.2 °F 73% 29.80 in 6.2 mi Calm Calm - N/A   Scattered Clouds
12:55 PM 64.4 °F 59.0 °F 83% 29.77 in 2.5 mi Calm Calm - N/A Rain Light Rain
1:55 PM 62.6 °F 59.0 °F 88% 29.74 in 2.5 mi Calm Calm - N/A   Scattered Clouds
2:00 PM 63 °F 60 °F 85% 29.75 in 2 mi Calm Calm - - Rain Light Rain
2:55 PM 64.4 °F 59.0 °F 83% 29.71 in 2.5 mi Calm Calm - N/A   Scattered Clouds
3:55 PM 64.4 °F 59.0 °F 83% 29.68 in 2.5 mi Calm Calm - N/A   Scattered Clouds
4:55 PM 64.4 °F 60.8 °F 88% 29.68 in 2.5 mi Calm Calm - N/A Rain Rain
5:55 PM 62.6 °F 59.0 °F 88% 29.65 in 1.2 mi Calm Calm - N/A Rain Rain
6:55 PM 62.6 °F 59.0 °F 88% 29.65 in 5.0 mi ENE 2.3 mph - N/A Rain Rain
7:55 PM 60.8 °F 57.2 °F 88% 29.56 in 4.3 mi East 4.6 mph - N/A Rain Light Rain
8:00 PM 61 °F 57 °F 81% 29.59 in 2 mi East 4.6 mph - - Rain Light Rain
8:55 PM 62.6 °F 57.2 °F 82% 29.53 in 6.2 mi ESE 3.5 mph - N/A Rain Light Rain
9:55 PM 62.6 °F 59.0 °F 88% 29.53 in 3.7 mi East 2.3 mph - N/A Rain Rain
10:55 PM 62.6 °F 59.0 °F 88% 29.50 in 5.0 mi East 1.2 mph - N/A Rain Light Rain
11:55 PM 62.6 °F 57.2 °F 82% 29.47 in 5.0 mi East 8.1 mph 19.6 mph N/A Rain Light Rain